�������l�o���
Date,Time,MP-1(��Sv/h),MP-2(��Sv/h),MP-3(��Sv/h),MP-4(��Sv/h),MP-5(��Sv/h),MP-6(��Sv/h),MP-7(��Sv/h),����,����(m/s),���J
2014/10/21,00:00,0.622,0.432,0.665,0.599,0.595,0.274,0.242,�쐼,9.7,��
2014/10/21,00:10,0.621,0.433,0.665,0.602,0.595,0.275,0.241,��쐼,10.2,��
2014/10/21,00:20,0.621,0.433,0.665,0.602,0.594,0.274,0.242,�쐼,10.2,��
2014/10/21,00:30,0.622,0.431,0.663,0.600,0.594,0.275,0.241,�쐼,9.2,��
2014/10/21,00:40,0.623,0.432,0.664,0.603,0.594,0.274,0.243,�쐼,11.0,��
2014/10/21,00:50,0.621,0.432,0.665,0.601,0.595,0.273,0.240,�쐼,9.3,��
2014/10/21,01:00,0.620,0.433,0.664,0.601,0.594,0.274,0.242,�쐼,8.0,��
2014/10/21,01:10,0.622,0.431,0.663,0.603,0.595,0.274,0.240,�쐼,9.4,��
2014/10/21,01:20,0.621,0.433,0.664,0.601,0.593,0.275,0.241,�쐼,9.5,��
2014/10/21,01:30,0.622,0.433,0.665,0.602,0.593,0.273,0.240,�쐼,8.3,��
2014/10/21,01:40,0.624,0.432,0.665,0.602,0.595,0.275,0.242,��쐼,6.8,��
2014/10/21,01:50,0.622,0.434,0.663,0.601,0.593,0.274,0.240,��쐼,5.6,��
2014/10/21,02:00,0.622,0.432,0.664,0.602,0.596,0.273,0.241,��쐼,5.0,��
2014/10/21,02:10,0.622,0.431,0.664,0.600,0.594,0.275,0.241,��쐼,4.6,��
2014/10/21,02:20,0.621,0.432,0.664,0.602,0.596,0.274,0.242,��쐼,3.6,��
2014/10/21,02:30,0.622,0.433,0.662,0.601,0.596,0.275,0.241,��,4.2,��
2014/10/21,02:40,0.622,0.433,0.666,0.602,0.594,0.273,0.238,��,5.1,��
2014/10/21,02:50,0.622,0.433,0.662,0.604,0.596,0.274,0.241,��,5.9,��
2014/10/21,03:00,0.621,0.432,0.664,0.602,0.594,0.274,0.241,��,4.9,��
2014/10/21,03:10,0.620,0.432,0.663,0.601,0.595,0.275,0.242,��,5.6,��
2014/10/21,03:20,0.621,0.431,0.663,0.603,0.596,0.275,0.240,��,6.4,��
2014/10/21,03:30,0.622,0.431,0.664,0.602,0.595,0.273,0.241,��,5.3,��
2014/10/21,03:40,0.622,0.432,0.665,0.600,0.595,0.276,0.241,��쐼,4.7,��
2014/10/21,03:50,0.622,0.431,0.663,0.602,0.593,0.273,0.241,��쐼,6.6,��
2014/10/21,04:00,0.620,0.433,0.664,0.600,0.594,0.276,0.240,��쐼,7.9,��
2014/10/21,04:10,0.624,0.432,0.664,0.601,0.595,0.274,0.242,��쐼,7.8,��
2014/10/21,04:20,0.621,0.431,0.664,0.601,0.595,0.273,0.241,�쐼,6.1,��
2014/10/21,04:30,0.622,0.433,0.664,0.601,0.595,0.274,0.242,��쐼,4.7,��
2014/10/21,04:40,0.622,0.433,0.665,0.602,0.595,0.274,0.240,��쐼,4.4,��
2014/10/21,04:50,0.623,0.432,0.664,0.602,0.595,0.274,0.242,��쐼,4.3,��
2014/10/21,05:00,0.621,0.432,0.665,0.601,0.593,0.275,0.242,��쐼,4.1,��
2014/10/21,05:10,0.622,0.433,0.662,0.601,0.594,0.274,0.243,��,5.8,��
2014/10/21,05:20,0.621,0.431,0.665,0.602,0.594,0.274,0.241,��,7.1,��
2014/10/21,05:30,0.622,0.433,0.664,0.601,0.594,0.275,0.240,��,7.1,��
2014/10/21,05:40,0.622,0.432,0.664,0.600,0.595,0.275,0.242,��쐼,7.1,��
2014/10/21,05:50,0.621,0.433,0.664,0.602,0.594,0.276,0.243,��쐼,6.8,��
2014/10/21,06:00,0.621,0.432,0.664,0.602,0.594,0.274,0.242,��쐼,7.0,��
2014/10/21,06:10,0.622,0.433,0.664,0.600,0.595,0.275,0.242,��,6.7,��
2014/10/21,06:20,0.622,0.432,0.665,0.600,0.593,0.274,0.241,��,6.9,��
2014/10/21,06:30,0.622,0.433,0.665,0.603,0.594,0.275,0.242,��,7.4,��
2014/10/21,06:40,0.621,0.432,0.663,0.604,0.596,0.274,0.241,��쐼,7.8,��
2014/10/21,06:50,0.623,0.433,0.663,0.602,0.596,0.274,0.242,��쐼,8.0,��
2014/10/21,07:00,0.622,0.433,0.665,0.601,0.596,0.274,0.240,��쐼,7.2,��
2014/10/21,07:10,0.623,0.432,0.665,0.602,0.595,0.274,0.241,��쐼,7.9,��
2014/10/21,07:20,0.622,0.434,0.665,0.602,0.594,0.275,0.241,��쐼,7.3,��
2014/10/21,07:30,0.621,0.432,0.665,0.602,0.595,0.273,0.242,��쐼,7.4,��
2014/10/21,07:40,0.623,0.433,0.664,0.601,0.594,0.276,0.241,��쐼,7.2,��
2014/10/21,07:50,0.623,0.433,0.664,0.602,0.594,0.275,0.243,��쐼,6.0,��
2014/10/21,08:00,0.623,0.432,0.664,0.603,0.595,0.275,0.242,��쐼,6.1,��
2014/10/21,08:10,0.622,0.431,0.663,0.604,0.595,0.276,0.241,��,5.0,��
2014/10/21,08:20,0.621,0.433,0.665,0.603,0.596,0.273,0.243,��,6.1,��
2014/10/21,08:30,0.623,0.431,0.665,0.604,0.596,0.275,0.241,��,7.0,��
2014/10/21,08:40,0.622,0.433,0.665,0.605,0.595,0.274,0.241,��쐼,7.8,��
2014/10/21,08:50,0.624,0.434,0.665,0.605,0.596,0.273,0.242,��쐼,6.9,��
2014/10/21,09:00,0.623,0.433,0.665,0.605,0.595,0.276,0.242,��,6.3,��
2014/10/21,09:10,0.622,0.433,0.665,0.606,0.597,0.273,0.241,��,7.3,��
2014/10/21,09:20,0.624,0.435,0.664,0.604,0.596,0.274,0.242,��,6.5,��
2014/10/21,09:30,0.624,0.433,0.665,0.605,0.597,0.275,0.241,��쐼,6.1,��
2014/10/21,09:40,0.627,0.434,0.665,0.607,0.598,0.273,0.243,��쐼,7.3,��
2014/10/21,09:50,0.626,0.435,0.667,0.608,0.598,0.275,0.242,��,7.0,��
2014/10/21,10:00,0.624,0.434,0.666,0.606,0.597,0.274,0.240,��,7.2,��
2014/10/21,10:10,0.626,0.436,0.666,0.607,0.598,0.272,0.242,��쐼,7.0,��
2014/10/21,10:20,0.625,0.436,0.667,0.608,0.597,0.275,0.241,��쐼,5.6,��
2014/10/21,10:30,0.626,0.437,0.666,0.608,0.599,0.273,0.240,��쐼,6.7,��
2014/10/21,10:40,0.626,0.435,0.665,0.607,0.598,0.274,0.242,��쐼,7.7,��
2014/10/21,10:50,0.628,0.436,0.667,0.608,0.598,0.275,0.241,��쐼,6.8,��
2014/10/21,11:00,0.628,0.436,0.667,0.608,0.599,0.274,0.240,��쐼,7.0,��
2014/10/21,11:10,0.626,0.436,0.668,0.607,0.599,0.275,0.243,��쐼,7.1,��
2014/10/21,11:20,0.628,0.436,0.664,0.609,0.599,0.275,0.241,��쐼,7.3,��
2014/10/21,11:30,0.627,0.435,0.667,0.609,0.598,0.274,0.241,��쐼,7.5,��
2014/10/21,11:40,0.626,0.438,0.667,0.611,0.601,0.275,0.242,��쐼,7.5,��
2014/10/21,11:50,0.625,0.437,0.666,0.609,0.597,0.275,0.241,��쐼,7.7,��
2014/10/21,12:00,0.624,0.439,0.666,0.610,0.597,0.273,0.242,��쐼,7.9,�L
2014/10/21,12:10,0.629,0.436,0.668,0.610,0.599,0.275,0.243,��쐼,8.0,�L
2014/10/21,12:20,0.630,0.431,0.670,0.610,0.600,0.274,0.240,��쐼,6.8,��
2014/10/21,12:30,0.631,0.431,0.668,0.609,0.598,0.275,0.241,��쐼,7.3,��
2014/10/21,12:40,0.628,0.430,0.669,0.610,0.601,0.273,0.242,��쐼,7.3,��
2014/10/21,12:50,0.628,0.437,0.669,0.609,0.597,0.273,0.241,��쐼,6.7,��
2014/10/21,13:00,0.628,0.439,0.665,0.609,0.598,0.274,0.241,��쐼,5.3,��
2014/10/21,13:10,0.629,0.439,0.668,0.612,0.599,0.274,0.243,��쐼,5.9,��
2014/10/21,13:20,0.628,0.439,0.667,0.612,0.599,0.276,0.241,��쐼,4.2,��
2014/10/21,13:30,0.628,0.441,0.671,0.612,0.600,0.273,0.240,��쐼,6.5,��
2014/10/21,13:40,0.631,0.441,0.668,0.613,0.600,0.276,0.243,��쐼,6.2,��
2014/10/21,13:50,0.629,0.439,0.668,0.614,0.600,0.276,0.241,��쐼,5.3,��
2014/10/21,14:00,0.630,0.438,0.669,0.613,0.602,0.275,0.239,��쐼,5.0,��
2014/10/21,14:10,0.629,0.439,0.668,0.613,0.601,0.273,0.242,��쐼,4.5,��
2014/10/21,14:20,0.630,0.439,0.667,0.613,0.599,0.276,0.241,��쐼,3.6,��
2014/10/21,14:30,0.631,0.439,0.667,0.613,0.599,0.274,0.240,��쐼,4.6,��
2014/10/21,14:40,0.630,0.439,0.664,0.611,0.600,0.273,0.242,��쐼,5.2,��
2014/10/21,14:50,0.630,0.439,0.668,0.612,0.600,0.277,0.244,��쐼,5.1,��
2014/10/21,15:00,0.629,0.438,0.667,0.612,0.599,0.273,0.241,��쐼,5.5,��
2014/10/21,15:10,0.631,0.438,0.668,0.610,0.600,0.275,0.242,��쐼,4.8,��
2014/10/21,15:20,0.630,0.437,0.669,0.611,0.599,0.275,0.243,��쐼,6.0,��
2014/10/21,15:30,0.629,0.438,0.667,0.611,0.600,0.274,0.240,�쐼,6.5,��
2014/10/21,15:40,0.628,0.440,0.667,0.611,0.600,0.274,0.242,�쐼,5.7,�L
2014/10/21,15:50,0.630,0.438,0.668,0.611,0.599,0.274,0.242,�쐼,5.0,��
2014/10/21,16:00,0.629,0.438,0.665,0.610,0.600,0.275,0.242,�쐼,3.3,��
2014/10/21,16:10,0.627,0.437,0.668,0.611,0.598,0.275,0.242,��쐼,2.3,��
2014/10/21,16:20,0.628,0.439,0.668,0.610,0.601,0.274,0.240,��,3.1,��
2014/10/21,16:30,0.626,0.438,0.669,0.612,0.599,0.273,0.243,��,3.6,��
2014/10/21,16:40,0.626,0.437,0.667,0.611,0.599,0.277,0.242,��쐼,4.5,��
2014/10/21,16:50,0.627,0.437,0.668,0.608,0.597,0.273,0.241,��쐼,5.0,��
2014/10/21,17:00,0.625,0.436,0.667,0.608,0.596,0.275,0.242,��쐼,4.6,��
2014/10/21,17:10,0.626,0.436,0.666,0.607,0.597,0.275,0.241,��,3.9,��
2014/10/21,17:20,0.627,0.436,0.667,0.609,0.597,0.273,0.243,��,5.3,��
2014/10/21,17:30,0.624,0.436,0.668,0.610,0.597,0.274,0.241,��,5.8,��
2014/10/21,17:40,0.623,0.434,0.666,0.610,0.597,0.275,0.242,��,4.7,��
2014/10/21,17:50,0.624,0.437,0.667,0.606,0.597,0.276,0.242,��,5.6,��
2014/10/21,18:00,0.624,0.435,0.667,0.607,0.596,0.274,0.242,��쐼,5.6,��
2014/10/21,18:10,0.622,0.435,0.665,0.606,0.597,0.275,0.243,��,3.9,��
2014/10/21,18:20,0.622,0.436,0.664,0.604,0.596,0.276,0.241,��쐼,3.9,��
2014/10/21,18:30,0.622,0.436,0.666,0.606,0.594,0.274,0.243,��쐼,4.7,��
2014/10/21,18:40,0.624,0.433,0.664,0.606,0.594,0.277,0.241,��쐼,3.9,��
2014/10/21,18:50,0.622,0.434,0.666,0.603,0.596,0.275,0.242,��쐼,4.8,��
2014/10/21,19:00,0.623,0.434,0.666,0.602,0.596,0.274,0.242,��,4.6,��
2014/10/21,19:10,0.624,0.436,0.665,0.603,0.596,0.275,0.243,��쐼,4.5,��
2014/10/21,19:20,0.623,0.435,0.665,0.603,0.594,0.275,0.243,��쐼,5.3,��
2014/10/21,19:30,0.623,0.434,0.663,0.606,0.594,0.275,0.242,��쐼,4.8,��
2014/10/21,19:40,0.620,0.432,0.666,0.602,0.596,0.275,0.241,��쐼,4.4,��
2014/10/21,19:50,0.622,0.433,0.665,0.601,0.594,0.276,0.242,��,3.7,��
2014/10/21,20:00,0.619,0.435,0.666,0.601,0.595,0.274,0.243,��쐼,4.4,��
2014/10/21,20:10,0.621,0.435,0.666,0.602,0.595,0.275,0.242,��쐼,3.8,��
2014/10/21,20:20,0.620,0.436,0.665,0.602,0.595,0.273,0.243,��쐼,2.9,��
2014/10/21,20:30,0.621,0.435,0.664,0.603,0.595,0.276,0.242,��,3.5,��
2014/10/21,20:40,0.620,0.434,0.666,0.604,0.595,0.275,0.243,��쐼,2.8,��
2014/10/21,20:50,0.622,0.434,0.667,0.603,0.595,0.275,0.242,��,4.0,��
2014/10/21,21:00,0.624,0.434,0.667,0.602,0.597,0.275,0.243,��,3.8,��
2014/10/21,21:10,0.621,0.433,0.664,0.604,0.595,0.276,0.242,��쐼,4.7,��
2014/10/21,21:20,0.622,0.434,0.666,0.603,0.596,0.276,0.242,�쐼,3.3,��
2014/10/21,21:30,0.623,0.435,0.665,0.603,0.595,0.274,0.242,�쐼,3.7,��
2014/10/21,21:40,0.621,0.435,0.664,0.602,0.595,0.275,0.242,�쐼,2.3,��
2014/10/21,21:50,0.624,0.433,0.663,0.603,0.596,0.275,0.241,��쐼,1.6,��
2014/10/21,22:00,0.623,0.434,0.665,0.603,0.597,0.275,0.243,�쐼,1.7,��
2014/10/21,22:10,0.622,0.435,0.665,0.604,0.593,0.275,0.242,�쐼,3.7,�L
2014/10/21,22:20,0.623,0.434,0.665,0.603,0.596,0.275,0.244,�쐼,2.8,��
2014/10/21,22:30,0.621,0.436,0.664,0.603,0.593,0.275,0.242,��쐼,4.2,��
2014/10/21,22:40,0.624,0.434,0.665,0.601,0.594,0.274,0.242,��쐼,4.1,��
2014/10/21,22:50,0.622,0.435,0.666,0.602,0.594,0.276,0.242,�쐼,4.6,��
2014/10/21,23:00,0.624,0.434,0.666,0.604,0.595,0.274,0.243,�쐼,3.9,��
2014/10/21,23:10,0.623,0.435,0.665,0.601,0.595,0.275,0.242,�쐼,4.2,��
2014/10/21,23:20,0.624,0.434,0.666,0.603,0.594,0.275,0.242,��쐼,3.2,�L
2014/10/21,23:30,0.621,0.434,0.665,0.602,0.595,0.276,0.242,��쐼,3.3,�L
2014/10/21,23:40,0.623,0.434,0.665,0.602,0.596,0.274,0.242,��쐼,3.7,�L
2014/10/21,23:50,0.624,0.435,0.666,0.602,0.597,0.275,0.243,��쐼,2.6,�L
